Find Starlink 32600

NORAD ID: 62178 Int'l Des: 2024-225 Owner: SPXS Country: US Constellation: starlink operational
LEOCIRCULAR

Live-Position

3D-Globus wird geladen...

Über Starlink 32600

Beschreibung wird geladen...

Nächste Überflüge

Passes for default location (London). Set your location on the main map for personalized predictions.

Höhenverlauf

Loading altitude history...

Zweizeiliger Elementsatz

1 62178U 24225R 26125.37905595 -.00007368 00000-0 -61077-3 0 9998
2 62178 70.0079 11.6284 0000822 313.8678 46.2413 14.98311587 78618
Epoch: 5. Mai 2026 • Age: 13 hours

Aktueller Status

Höhe 575.3 km
Geschwindigkeit 7.58 km/s
Subsatellitenpunkt 26.18°N, 22.72°W
Startdatum 30. Nov. 2024
Alter 1.4 years
Typ internet

Technische Details

Klassifizierung Payload
Masse 730.00 kg
Trockenmasse 700.00 kg
Gesamtmasse 730.00 kg
Länge 0.30 m
Durchmesser 4.10 m
Spannweite 29.00 m
Form Box + pan
Hersteller SPXS
Bus-Typ Starlink V2M
Phasenstatus In Orbit
Besitzer/Staat SPXS/US

Most Searched